DW7754 Weather Reports


time (UTC)temp
F
wind
direction
speed
knots
gust
knots
rain 1hr
in
rain 24hr
in
rain mn
in
humidity
%
barometer
mb
20260509053102 55 236 0.0 5.2 0.00 0.40 0.00 98 1007.9
20260509051544 55 250 0.0 6.1 0.00 0.40 0.00 98 1007.9
20260509050036 54 238 0.0 5.2 0.00 0.40 0.00 98 1007.8
20260509043039 54 219 1.7 8.7 0.01 0.40 0.00 97 1007.8
20260509041534 54 180 3.5 9.6 0.01 0.40 0.00 97 1007.8
20260509040035 54 192 2.6 7.8 0.01 0.40 0.00 97 1007.8
20260509034538 54 187 0.0 5.2 0.02 0.40 0.40 97 1007.9
20260509033031 54 187 0.0 2.6 0.02 0.39 0.39 97 1008.0
20260509031548 54 204 0.0 0.9 0.04 0.39 0.39 97 1008.0
20260509030054 55 233 0.0 5.2 0.06 0.39 0.39 97 1008.3
20260509024537 55 236 0.0 7.8 0.06 0.38 0.38 97 1008.3
20260509023034 55 228 0.9 10.4 0.04 0.36 0.36 97 1008.4
20260509021536 55 236 0.9 12.2 0.04 0.35 0.35 97 1008.4
20260509020028 55 219 0.9 6.1 0.04 0.33 0.33 97 1008.2
20260509014528 55 246 0.9 7.8 0.03 0.32 0.32 97 1008.1
20260509013027 55 230 0.9 7.0 0.04 0.32 0.32 97 1008.2
20260509011527 55 234 0.0 5.2 0.04 0.31 0.31 97 1008.2
20260509004529 55 231 0.0 2.6 0.06 0.28 0.28 97 1008.1
20260509003025 55 232 0.0 3.5 0.06 0.28 0.28 96 1008.2
20260509001524 55 229 0.0 2.6 0.08 0.26 0.26 96 1008.4
20260509000023 55 231 0.0 3.5 0.08 0.24 0.24 96 1008.5
20260508234523 55 204 0.0 0.0 0.09 0.23 0.23 95 1008.4
20260508233023 55 181 0.0 0.9 0.12 0.22 0.22 95 1008.3
20260508231521 55 227 0.0 0.0 0.10 0.18 0.18 94 1008.8
20260508230021 55 199 0.0 0.0 0.10 0.16 0.16 94 1008.5
20260508224520 55 296 0.0 0.0 0.10 0.14 0.14 93 1008.6
20260508223038 56 302 0.0 0.0 0.08 0.10 0.10 93 1008.9
20260508221518 56 302 0.0 0.0 0.08 0.08 0.08 92 1008.8
20260508220017 56 307 0.0 0.0 0.06 0.06 0.06 90 1008.8
20260508214516 57 307 0.9 6.1 0.04 0.04 0.04 88 1008.7
20260508213021 60 351 1.7 11.3 0.01 0.01 0.01 79 1008.5
20260508211511 62 292 0.0 3.5 0.00 0.00 0.00 68 1008.2
20260508210015 63 238 0.0 0.0 0.00 0.00 0.00 66 1008.0
20260508204510 64 238 0.0 0.9 0.00 0.00 0.00 64 1008.0
20260508203007 63 238 0.0 4.3 0.00 0.00 0.00 62 1008.2
20260508201507 63 225 0.0 4.3 0.00 0.00 0.00 61 1008.5
20260508200009 63 232 0.0 2.6 0.00 0.00 0.00 62 1008.7
20260508194502 63 239 0.0 2.6 0.00 0.00 0.00 62 1008.9
20260508193105 63 240 0.0 2.6 0.00 0.00 0.00 59 1009.2
20260508191559 63 238 0.0 6.1 0.00 0.00 0.00 58 1009.4
20260508190058 63 244 0.9 8.7 0.00 0.00 0.00 56 1009.7
20260508184557 63 217 1.7 11.3 0.00 0.00 0.00 56 1009.8
20260508183056 63 248 0.9 10.4 0.00 0.00 0.00 58 1009.7
20260508181557 63 230 2.6 8.7 0.00 0.00 0.00 57 1010.0
20260508180054 63 223 0.0 6.1 0.00 0.00 0.00 58 1010.1
20260508174558 63 225 0.9 8.7 0.00 0.00 0.00 55 1010.0
20260508173052 64 229 2.6 13.9 0.00 0.00 0.00 52 1010.2
20260508171550 65 205 0.9 6.1 0.00 0.00 0.00 56 1010.3
20260508170048 65 218 0.9 10.4 0.00 0.00 0.00 58 1010.7
20260508164546 63 249 3.5 15.6 0.00 0.00 0.00 55 1011.0
20260508163040 63 244 2.6 11.3 0.00 0.00 0.00 56 1011.3
20260508161539 63 217 1.7 11.3 0.00 0.00 0.00 57 1011.4
20260508160039 63 233 0.9 8.7 0.00 0.00 0.00 57 1011.6
20260508154539 62 225 0.0 4.3 0.00 0.00 0.00 60 1011.7
20260508153040 62 229 0.0 7.0 0.00 0.00 0.00 57 1011.8
20260508151534 62 250 0.9 7.8 0.00 0.00 0.00 57 1011.7
20260508150050 62 234 0.9 9.6 0.00 0.00 0.00 57 1011.9
20260508144529 61 239 0.9 8.7 0.00 0.00 0.00 59 1011.9
20260508143025 60 234 0.9 7.8 0.00 0.00 0.00 59 1012.1
20260508141529 59 249 0.9 12.2 0.00 0.00 0.00 60 1012.2
20260508140026 59 236 0.0 10.4 0.00 0.00 0.00 59 1012.5
20260508134517 58 231 0.9 7.0 0.00 0.00 0.00 59 1012.6
20260508133013 57 228 0.9 5.2 0.00 0.00 0.00 60 1012.7
20260508131509 57 254 0.0 7.8 0.00 0.00 0.00 62 1012.9
20260508130005 55 230 0.0 3.5 0.00 0.00 0.00 62 1012.7
20260508124600 54 240 0.0 2.6 0.00 0.00 0.00 65 1012.7
20260508123056 53 229 0.0 2.6 0.00 0.00 0.00 67 1012.7
20260508121552 51 240 0.0 0.9 0.00 0.00 0.00 68 1012.9
20260508120048 50 241 0.0 0.0 0.00 0.00 0.00 71 1012.7
20260508114544 49 306 0.0 0.0 0.00 0.00 0.00 72 1012.7
20260508113040 49 306 0.0 0.0 0.00 0.00 0.00 70 1012.6
20260508111540 49 306 0.0 0.0 0.00 0.00 0.00 70 1012.7
20260508110037 49 244 0.0 3.5 0.00 0.00 0.00 69 1012.2
20260508104537 49 238 0.0 2.6 0.00 0.00 0.00 69 1012.2
20260508103035 49 221 0.0 6.1 0.00 0.00 0.00 69 1012.2
20260508101633 49 246 0.0 0.9 0.00 0.00 0.00 69 1012.1
20260508100035 50 237 0.0 2.6 0.00 0.00 0.00 67 1012.1
20260508094531 50 238 0.0 1.7 0.00 0.00 0.00 67 1012.2
20260508093035 51 235 0.0 2.6 0.00 0.00 0.00 66 1012.3
20260508091533 51 229 0.0 0.9 0.00 0.00 0.00 66 1012.3
20260508090035 52 228 0.0 2.6 0.00 0.00 0.00 66 1012.3
20260508084528 52 232 0.0 4.3 0.00 0.00 0.00 66 1012.6
20260508083028 52 263 0.0 0.0 0.00 0.00 0.00 65 1012.7
20260508081528 52 294 0.0 0.9 0.00 0.00 0.00 65 1012.9
20260508080049 52 249 0.0 3.5 0.00 0.00 0.00 63 1012.9
20260508074527 52 237 0.0 5.2 0.00 0.00 0.00 62 1012.8
20260508073030 52 243 0.0 3.5 0.00 0.00 0.00 62 1012.7
20260508071524 52 234 0.0 4.3 0.00 0.00 0.00 62 1012.5
20260508070024 52 238 0.0 3.5 0.00 0.00 0.00 63 1012.7
20260508064537 52 246 0.0 5.2 0.00 0.00 0.00 63 1013.0
20260508063121 52 232 0.0 5.2 0.00 0.00 0.00 63 1013.0
20260508061520 52 242 0.9 7.0 0.00 0.00 0.00 63 1012.9
20260508060017 52 239 0.0 3.5 0.00 0.00 0.00 65 1012.9
20260508054531 51 235 0.0 3.5 0.00 0.00 0.00 65 1013.1